Zurück zum Katalog

IRIDIUM 172

AktivKommunikationPO
NORAD 43927·PAYLOAD·🇺🇸 United States

Gestartet Jan 11, 2019 von Vandenberg Space Force Base

Loading…

Nächste Überflüge (nächste 24 Stunden)

TLE

AktuellSource: CelesTrak SupGP

Epoche: Sep 14, 2026, 10:19 UTC

1 43927C 19002F   26257.43020833 -.00000328  00000+0 -11745-3 0  2574
2 43927  86.3976 316.2875 0002341  96.7473 345.5145 14.34216297    11

Verfolge IRIDIUM 172 in Echtzeit mit AllMySat

Download on the App Store